Meteo Giornale » Osservazioni meteo Stati Uniti (USA) » New York City Central Park

ore: 05:51 - Osservazioni Meteo New York City Central Park
Lat. 40° 47' N Lon. 73° 58' W Alt. 47 metri s.l.m.

poco_nuvoloso America/New_York

1 °C

Poco Nuvoloso

Temp. 24 Ore

1 °C

8 °C

Nord

0 Km/h

Dew point -10 °C

Umidità 43 %

Visibilità  10 Km

Il sole sorge alle ore 07:13

Il sole tramonta alle ore 16:31

Data e Ora Cielo e Fenomeni T °C DP °C Um. % Pres. hPa Vis. km Vento km/h
Oggi h: 05:51 poco_nuvoloso Poco Nuvoloso 1 -10 43 1013 10 N 0
Oggi h: 04:51 molto_nuvoloso Molto Nuvoloso 1 -10 43 1012 10 N 0
Oggi h: 03:51 molto_nuvoloso Molto Nuvoloso 2 -9 43 1011 10 N 0
Oggi h: 02:51 coperto Coperto 3 -8 44 1010 10 N 0
Oggi h: 01:51 coperto Coperto 3 -8 44 1009 10 N 0
Oggi h: 00:51 coperto Coperto 4 -6 47 1009 10 N 0
Ieri h: 23:51 coperto Coperto 5 -6 44 1008 10 N 0
Ieri h: 22:51 coperto Coperto 5 -5 48 1008 10 N 0
Ieri h: 21:51 molto_nuvoloso Molto Nuvoloso 5 -4 52 1008 10 N 0
Ieri h: 20:51 coperto Coperto 6 -4 48 1008 10 N 0
Ieri h: 19:51 coperto Coperto 6 -5 45 0 10 N 0
Ieri h: 18:51 coperto Coperto 6 -5 45 1008 10 N 0
Ieri h: 17:51 coperto Coperto 6 -5 45 1008 10 N 0
Ieri h: 16:51 coperto Coperto 6 -4 48 1007 10 N 0
Ieri h: 15:51 coperto Coperto 7 -4 45 1006 10 N 0
Ieri h: 14:51 molto_nuvoloso Molto Nuvoloso 7 -3 48 1005 10 N 0
Ieri h: 13:51 coperto Coperto 7 -2 52 1005 10 N 0
Ieri h: 12:51 coperto Coperto 7 -1 56 1005 10 N 0
Ieri h: 11:51 molto_nuvoloso Molto Nuvoloso 8 1 61 1006 10 N 0
Ieri h: 11:30 nuvoloso Nuvoloso 8 1 61 1006 10 N 0
Ieri h: 11:14 molto_nuvoloso Molto Nuvoloso 7 1 65 1006 10 N 0
Ieri h: 10:51 sereno Sereno 7 1 65 1007 10 N 0
Ieri h: 10:17 nuvoloso Nuvoloso 6 1 70 1007 10 N 0
Ieri h: 09:51 molto_nuvoloso Molto Nuvoloso 6 2 75 1008 10 N 0
Ieri h: 08:51 sereno Sereno 4 1 80 1008 10 N 0
Ieri h: 07:51 sereno Sereno 4 1 80 1008 10 N 0
Ieri h: 07:38 nuvoloso Nuvoloso 4 1 80 1008 10 N 0
Ieri h: 06:51 coperto Coperto 4 1 80 1008 10 N 0
Ieri h: 05:51 coperto Coperto 4 2 86 1008 10 N 0